Location: Mordelles
(48.0757°N, 1.8429°W)
Time: 15:11:38
(UTC+00:00)

Daily predictions for brighter satellites

Satellite Brightness Start Highest point End
(mag) Time Altitude Azimuth Time Altitude Azimuth Time Altitude Azimuth
Cosmos 2082 Rocket 2.2 20:37:04 10° SSW 20:42:45 76° ESE 20:48:28 10° NNE
Spot 2 Rocket 4.2 20:39:15 10° SE 20:43:58 41° ENE 20:48:44 10° N
IRIDIUM 103 4.4 20:39:32 10° N 20:44:47 88° E 20:50:01 10° S
Cosmos 1933 Rocket 3.8 20:41:36 10° N 20:45:58 57° ENE 20:50:20 10° SSE
Cosmos 1470 2.7 20:42:56 10° N 20:46:36 61° ENE 20:50:16 10° SSE
SPOT 5 2.6 20:44:13 10° SSE 20:48:31 87° E 20:52:56 10° NNW
Cosmos 1626 4.0 20:49:12 10° SW 20:51:59 27° WNW 20:54:48 10° NNW
Cosmos 1908 3.4 20:50:16 10° N 20:53:48 50° ENE 20:57:18 10° SSE
Cosmos 1674 2.7 20:56:33 10° SSW 21:00:00 74° W 21:03:29 10° N
ATLAS 2AS CENTAUR R/B 3.7 20:53:36 10° NW 21:00:04 40° NNE 21:06:18 10° ESE
IRS-1C Rocket 4.2 20:55:21 10° SSE 21:00:37 87° WSW 21:05:54 10° NNW
Cosmos 468 Rocket 4.0 21:01:15 10° NNW 21:06:32 89° WSW 21:11:42 10° SSE
KORONAS-FOTON 3.8 21:02:54 10° S 21:06:37 82° W 21:10:23 10° N
Ariane Rocket 3.2 21:03:25 10° SSE 21:08:25 63° ENE 21:13:28 10° N
Cosmos 1842 3.4 21:06:30 10° SSW 21:10:08 68° W 21:13:48 10° N
Cosmos 2251 Rocket 4.4 21:05:54 10° SW 21:11:05 55° WNW 21:16:21 10° NNE
COSMOS 2406 3.5 21:10:14 10° SSW 21:16:00 78° WNW 21:21:47 10° NNE
SPOT 3 Rocket 3.6 21:12:16 10° SSE 21:17:21 69° ENE 21:22:31 10° N
Meteor 1-13 Rocket 4.3 21:13:08 10° S 21:18:54 72° E 21:24:35 10° NNE
Cosmos 1553 Rocket 4.3 21:14:38 10° NNW 21:20:44 67° W 21:26:54 10° S
CZ-4C R/B 4.4 21:16:58 10° N 21:20:59 51° WNW 21:24:59 10° SSW
Cosmos 1980 Rocket 3.7 21:17:08 10° NW 21:22:06 32° WSW 21:27:01 10° SSW
Cosmos 2322 Rocket 2.8 21:16:53 10° NNW 21:22:24 49° NE 21:27:28 12° SE
S3M 4.1 21:16:32 10° N 21:22:56 73° E 21:29:06 11° SSE
Cosmos 1655 Rocket 4.4 21:23:06 10° SSE 21:29:14 51° E 21:35:24 10° NNE
SJ 16-02 3.1 21:28:53 13° ESE 21:30:38 16° E 21:33:13 10° ENE
Cosmos 2278 3.8 21:25:39 10° NNW 21:31:23 80° WSW 21:36:25 14° SSE
Landsat 5 4.0 21:28:13 10° NNE 21:31:57 37° E 21:35:02 14° SSE
Landsat 4 3.6 21:32:54 13° S 21:35:52 73° WSW 21:39:19 10° NNW
Cosmos 540 Rocket 4.3 21:31:33 10° NNW 21:36:28 46° WSW 21:41:21 10° S
Tiangong -0.3 21:34:30 10° WSW 21:36:36 16° SSW 21:37:28 15° S
USA 245 4.0 21:34:23 10° S 21:37:31 44° W 21:41:29 10° NNW
USA 281 4.0 21:32:44 10° ESE 21:38:49 42° NE 21:44:56 10° NNW
Cosmos 2266 Rocket 4.0 21:32:34 10° S 21:38:52 83° E 21:45:19 10° N
Cosmos 1400 Rocket 2.7 21:35:14 10° S 21:39:06 70° E 21:42:57 10° NNE
Cosmos 1733 Rocket 3.5 21:36:52 10° N 21:41:08 48° ENE 21:44:16 17° SE
Cosmos 1954 Rocket 4.5 21:35:54 10° SSW 21:41:09 65° WNW 21:46:25 10° NNE
MetOp-A 4.3 21:37:25 15° SSE 21:41:38 61° ENE 21:46:50 10° N
Cosmos 1707 4.1 21:38:57 10° SW 21:42:19 36° WNW 21:45:41 10° N
Terra 2.4 21:37:56 10° S 21:42:33 54° W 21:47:12 10° NNW
Cosmos 2237 4.4 21:37:30 10° NNW 21:43:14 73° WSW 21:47:58 15° SSE
Cosmos 968 Rocket 4.3 21:41:01 15° SSE 21:44:32 33° ESE 21:49:08 10° NE
SL-4 R/B 2.6 21:42:17 10° W 21:46:05 56° N 21:50:09 10° ENE
Cosmos 2228 Rocket 3.3 21:44:42 15° S 21:48:24 57° E 21:52:54 10° NNE
SL-08 ROCKET BODY 4.5 21:43:16 10° S 21:49:25 90° E 21:55:32 10° N
Cosmos 676 Rocket 4.4 21:45:16 10° SSW 21:50:33 66° WNW 21:55:52 10° NNE
Cosmos 2219 Rocket 3.3 21:45:46 10° NNW 21:51:00 36° NE 21:55:47 12° ESE
Cosmos 1315 Rocket 4.4 21:51:04 16° ESE 21:52:39 20° E 21:55:37 10° NE
ATLAS CENTAUR R/B 1.9 21:52:13 21° SSE 21:53:36 28° ESE 21:56:43 10° ENE
Meteor 2-10 Rocket 3.7 21:50:32 10° NNW 21:56:12 84° W 22:00:34 16° S
SeaSat 1 3.9 21:52:10 10° S 21:56:25 29° WSW 22:00:42 10° NW
Cosmos 1953 3.7 21:55:39 10° NNE 21:58:52 25° ENE 22:00:51 17° ESE
Cosmos 1455 3.7 21:59:18 10° NNE 22:02:05 22° ENE 22:03:41 16° ESE
H-2A R/B 4.3 21:59:30 12° ESE 22:02:19 21° ENE 22:05:33 10° NNE
Meteor 1-23 Rocket 4.3 21:59:16 10° SSW 22:04:56 83° WNW 22:10:42 10° N
Okean 1-7 3.9 22:04:58 21° SE 22:07:02 33° E 22:10:55 10° NNE
USA 234 3.6 22:00:38 10° NE 22:07:08 70° NNW 22:13:38 10° WSW
BREEZE-M DEB (TANK) 2.0 22:05:34 10° W 22:07:37 56° SSW 22:09:08 24° SE
CZ-2C R/B 4.4 22:05:30 10° NNE 22:09:32 34° E 22:11:36 23° SE
Cosmos 2315 Rocket 4.2 22:07:38 10° NNW 22:13:59 72° W 22:19:13 16° S
Cosmos 2360 Rocket 2.2 22:08:35 10° NNW 22:14:18 88° ENE 22:18:06 22° SSE
Cosmos 841 Rocket 4.2 22:11:58 10° NNW 22:17:00 48° WSW 22:20:45 17° S
RESURS DK-1 2.7 22:15:02 10° NW 22:19:00 53° WSW 22:21:10 24° S
Cosmos 2333 Rocket 2.2 22:13:33 10° NNW 22:19:20 88° ENE 22:23:08 22° SSE
SL-14 R/B 3.6 22:17:26 15° SSW 22:20:27 60° WNW 22:24:14 10° N
SL-16 R/B 3.0 22:16:31 10° NW 22:21:51 43° WSW 22:25:47 17° S
Atlas Centaur 2 4.1 22:18:24 10° SW 22:24:04 20° S 22:25:49 19° S
Cosmos 1300 3.4 22:21:27 10° NNW 22:24:50 42° W 22:26:54 20° SSW
EXPRESS MD2 2.2 22:23:43 10° W 22:26:05 64° N 22:27:54 13° ENE
BREEZE-M DEB (TANK) 4.2 22:11:14 10° WSW 22:30:49 86° NNW 22:35:22 10° ENE
Aureole 3 3.4 22:30:50 24° SSW 22:33:02 83° W 22:37:39 10° N
Cosmos 1346 Rocket 3.5 22:30:47 10° NNW 22:34:29 44° W 22:36:35 22° SSW
Cosmos 1833 4.1 22:30:08 16° SSW 22:34:38 70° ESE 22:40:14 10° NNE
Cosmos 1703 Rocket 4.2 22:32:44 27° SE 22:34:38 42° E 22:38:51 10° NNE
Cosmos 1862 Rocket 3.9 22:32:48 18° SSW 22:36:01 65° WNW 22:40:25 10° N
Meteor 1-4 Rocket 2.0 22:41:49 42° SSW 22:42:42 80° WNW 22:45:42 10° N
Cosmos 839 Rocket 4.1 22:36:41 10° NW 22:43:45 87° SW 22:47:42 24° SSE
Meteor 1-16 Rocket 4.4 22:37:58 10° NNW 22:43:54 75° W 22:47:38 24° S
Cosmos 2322 4.2 22:40:09 10° NNW 22:45:43 52° NE 22:49:29 20° SE
Cosmos 2237 Rocket 4.1 22:42:00 10° N 22:46:30 23° NE 22:50:56 10° E
ATLAS 2AS CENTAUR R/B 2.8 22:44:37 10° NW 22:51:22 65° WSW 22:55:16 26° SSE
Cosmos 2333 4.3 22:45:53 10° NNW 22:51:38 69° WSW 22:54:50 27° S
SL-27 R/B 3.2 22:50:57 21° WSW 22:52:22 36° WNW 22:55:00 10° N
ARIANE 5 R/B 2.6 22:54:58 31° S 22:56:56 71° WSW 23:01:17 10° NNW
SL-24 R/B - RUBIN 2 4.5 22:50:48 10° NW 22:57:31 86° NE 23:01:28 24° SE
Kosmos-1783 4.5 22:54:44 10° NW 22:58:29 84° NE 23:03:34 20° SE
PSLV R/B 3.7 22:57:10 10° NNE 23:01:12 85° ESE 23:02:51 34° S
Okean 2 3.5 23:00:22 29° SSW 23:02:16 68° W 23:06:18 10° N
Cosmos 2322 Rocket 3.4 23:01:18 10° NW 23:06:13 31° WSW 23:09:15 19° SSW
Cosmos 1570 Rocket 4.1 23:01:11 10° NNW 23:06:33 73° ENE 23:09:22 29° SE
SJ 16-02 1.7 23:05:35 20° SW 23:08:30 59° WNW 23:12:47 10° NNE
Cosmos 1745 Rocket 4.1 23:05:11 27° SSE 23:08:43 67° E 23:15:03 10° NNE
Cosmos 1241 Rocket 4.4 23:04:14 15° SSW 23:09:25 82° SE 23:15:42 10° NE
COSMOS 2455 3.8 23:08:59 25° SE 23:10:51 30° ESE 23:15:58 10° NE
Cosmos 2297 Rocket 3.6 23:13:10 19° ESE 23:14:43 21° E 23:18:51 10° NE
Nadezhda 1 Rocket 4.0 23:11:54 10° N 23:18:16 88° W 23:21:42 29° S
GP-B 3.5 23:15:42 10° N 23:20:01 57° W 23:22:05 29° SSW
Cosmos 1408 2.5 23:22:14 47° E 23:22:14 47° E 23:25:07 10° NNE
USA 281 3.7 23:19:37 25° S 23:23:14 48° WSW 23:29:36 10° NW
COSMOS 2428 2.7 23:19:24 10° NNW 23:25:08 81° ENE 23:28:13 29° SSE
SL-4 R/B 2.6 23:21:16 10° WNW 23:25:15 56° N 23:29:27 10° E
Cosmos 1315 Rocket 4.0 23:26:19 20° SW 23:28:32 36° WNW 23:32:16 10° N
Cosmos 1908 Rocket 4.5 23:26:11 10° NNW 23:30:14 39° W 23:31:58 27° SW
GEOS 3 Rocket 4.4 23:25:54 10° ENE 23:30:26 31° ESE 23:31:28 28° SE
ATLAS CENTAUR R/B 2.8 23:28:02 10° WSW 23:31:12 30° NW 23:34:28 10° NNE
Cosmos 1782 Rocket 3.6 23:28:27 10° NNW 23:32:46 70° W 23:34:15 39° SSW
CZ-3 Stage 3 4.4 23:08:58 10° W 23:32:59 31° SW 23:37:06 25° S
Cosmos 1953 3.7 23:31:23 10° NNW 23:34:40 27° W 23:35:58 22° WSW
Cosmos 2219 Rocket 2.8 23:29:42 10° NW 23:35:03 44° WSW 23:37:28 28° SSW
Cosmos 1242 Rocket 3.0 23:35:31 34° W 23:35:51 35° WNW 23:38:27 10° N
Cosmos 1455 3.5 23:33:33 10° NNW 23:36:30 26° W 23:37:24 23° WSW
H-2A R/B 3.1 23:35:29 33° SSW 23:36:56 47° W 23:41:06 10° NNW
Cosmos 2208 Rocket 3.9 23:32:04 10° NNW 23:37:18 84° WSW 23:39:34 35° SSE
Spot 2 4.4 23:35:40 35° S 23:37:52 79° WSW 23:42:58 10° NNW
Cosmos 158 Rocket 3.9 23:34:26 10° NNW 23:39:48 86° WSW 23:42:07 34° SSE
Cosmos 371 Rocket 3.8 23:38:59 34° SSE 23:40:24 44° ESE 23:44:59 10° NE
BREEZE-M DEB (TANK) 4.0 23:38:31 10° W 23:41:54 77° N 23:52:51 10° E
Cosmos 836 Rocket 4.4 23:36:58 10° NNW 23:42:13 88° ENE 23:44:34 34° SSE
Spot 4 4.3 23:42:36 32° SSW 23:44:27 51° W 23:49:10 10° NNW
Cosmos 773 Rocket 4.2 23:42:01 10° NNW 23:47:08 62° ENE 23:49:51 27° SE
GENESIS II 3.9 23:49:40 50° SW 23:50:33 89° SE 23:54:13 10° NE
ALOS 2 2.8 23:49:16 38° SSW 23:50:42 58° W 23:55:03 10° NNW
Cosmos 1300 Rocket 4.0 23:50:48 10° NNW 23:54:57 49° W 23:56:18 35° SW
Okean 2 Rocket 4.0 23:51:17 10° N 23:55:32 41° ENE 23:57:29 26° SE
